[[{"header":{"parameterUnit":"m.s-1","parameterCategory":1,"la1":30.2991,"la2":30.254,"lo1":-89.0895,"lo2":-89.0444,"dy":0.0017,"dx":0.0017,"nx":28,"ny":28,"refTime":"2025-07-02T21:00:00:Z","depth":0,"parameterNumber":2,"parameterNumberName":"U-component_of_WINDS"},"data":[0,0,0,0,0,0,0,0,0,0,0,0,0,0,0,0,0,0,0,0,0,0,0,0,0,0,0,0,0,0,0,0,0,0,0,0,0,0,0,0,0,0,0,0,0,0,0,0,0,0,0,0,0,0,0,0,0,0,0.4928,0.4929,0,0.4948,0.4948,0.4948,0.49,0.4898,0.4897,0.4895,0.4919,0.4921,0.4923,0,0,0,0,0,0,0,0,0,0,0,0,0,0.4856,0.4858,0.4928,0.4929,0.4929,0.4948,0.4948,0.4948,0.49,0.4898,0.4896,0.4894,0.4919,0.4921,0.4923,0,0,0,0,0,0,0,0,0,0,0,0,0,0.4883,0.4858,0.4928,0.4907,0.4905,0.4948,0.4948,0.4948,0.49,0.4898,0.4896,0.4894,0.4918,0.4921,0.4924,0.4989,0,0,0.4933,0.4935,0,0,0,0,0,0,0,0,0.4881,0.4886,0.491,0.4908,0.4907,0.4919,0.4931,0.4962,0.4901,0.4902,0.4895,0.4892,0.4921,0.4924,0.4933,0.499,0.4991,0.4934,0.4935,0.4937,0.4938,0,0,0,0,0,0,0,0.488,0.4884,0.4936,0.491,0.4908,0.4899,0.49,0.4937,0.4925,0.4902,0.4899,0.4901,0.492,0.493,0.4933,0.4992,0.4933,0.4936,0.4938,0.4939,0.511,0.5113,0,0,0,0,0,0,0.488,0.4883,0.4935,0.4937,0.4888,0.4902,0.4903,0.4917,0.4924,0.4923,0.4903,0.4899,0.4926,0.4929,0.4934,0.5015,0.4937,0.494,0.4941,0.5107,0.5111,0.5114,0,0,0,0,0,0,0.4878,0.4885,0.4935,0.4909,0.4915,0.4905,0.4922,0.4919,0.4929,0.4925,0.4923,0.4915,0.4924,0.4929,0.4977,0.5015,0.4941,0.4944,0.5104,0.5108,0.5112,0.5175,0,0,0,0,0,0,0.4876,0.4885,0.4908,0.491,0.4916,0.4976,0.4924,0.4921,0.4934,0.4928,0.4936,0.4935,0.4923,0.4972,0.498,0.5018,0.4946,0.5101,0.5106,0.5111,0.517,0.5181,0.5191,0,0,0,0,0,0.4874,0.4924,0.4909,0.4916,0.4944,0.4978,0.4982,0.4965,0.4937,0.4962,0.496,0.4935,0.5009,0.4978,0.4986,0.5025,0.5098,0.5105,0.511,0.5165,0.5179,0.519,0,0,0,0,0,0,0.4927,0.4924,0.4907,0.4959,0.4969,0.4969,0.5,0.498,0.4999,0.4993,0.4973,0.4976,0.5028,0.5031,0.4996,0.5092,0.5049,0.5057,0.5088,0.5101,0.5111,0.5111,0.4949,0,0,0,0,0,0.4945,0.497,0.4967,0.5013,0.5019,0.5009,0.5023,0.501,0.502,0.5024,0.5025,0.5038,0.5065,0.5082,0.5106,0.5169,0.5173,0.5201,0.5211,0.522,0.5228,0.5267,0.5281,0.5133,0.5133,0.5133,0,0,0.4982,0.4983,0.5001,0.5024,0.503,0.5061,0.5013,0.5045,0.5068,0.5029,0.5075,0.5077,0.509,0.5147,0.5172,0.5151,0.527,0.5227,0.5234,0.5238,0.5275,0.5289,0.5301,0.5137,0.5137,0.5136,0,0,0.5065,0.5067,0.5108,0.5116,0.5126,0.5119,0.5129,0.5134,0.5134,0.5179,0.5152,0.518,0.5224,0.5237,0.5248,0.5341,0.532,0.5349,0.5404,0.5442,0.5454,0.5464,0.5502,0.5515,0.5356,0.5356,0.5356,0,0.5111,0.5152,0.5132,0.5168,0.5181,0.5147,0.5191,0.5199,0.5217,0.5229,0.5204,0.5263,0.5269,0.5331,0.5354,0.5363,0.5377,0.5349,0.5454,0.5464,0.5473,0.5509,0.5523,0.536,0.536,0.5359,0.5359,0,0.521,0.524,0.5272,0.5291,0.5307,0.5347,0.5336,0.5355,0.5341,0.5339,0.5388,0.5394,0.5421,0.5434,0.542,0.5496,0.5483,0.5456,0.5414,0.5491,0.5525,0.5538,0.5366,0.5364,0.5363,0.5362,0,0,0.5327,0.5336,0.5349,0.5359,0.5369,0.5393,0.5432,0.5458,0.5478,0.5492,0.5528,0.5568,0.5545,0.5559,0.5546,0.558,0.5659,0.5549,0.555,0.5573,0.5748,0.5771,0.5787,0.5644,0.5646,0.5648,0.5749,0,0.5413,0.548,0.5465,0.5532,0.5562,0.5532,0.5567,0.5579,0.5578,0.5606,0.5605,0.5636,0.56,0.5609,0.564,0.5642,0.5694,0.5634,0.5682,0.5683,0.5683,0.5804,0.5827,0.5921,0.5761,0.5763,0.5765,0,0.5522,0.5541,0.5612,0.5621,0.5633,0.5665,0.569,0.5715,0.5729,0.5727,0.5744,0.5727,0.577,0.5726,0.5788,0.5748,0.5766,0.5771,0.5774,0.5781,0.5731,0.5818,0.595,0.5966,0.5784,0.5783,0.5782,0,0.5606,0.5649,0.5698,0.5707,0.5718,0.5742,0.5748,0.576,0.5778,0.58,0.5813,0.584,0.5856,0.5879,0.5871,0.5839,0.5938,0.5891,0.5941,0.5941,0.5965,0.5964,0.6107,0.5971,0.597,0.597,0.597,0,0.5705,0.5751,0.5736,0.5767,0.5819,0.5802,0.5854,0.5857,0.5869,0.5902,0.5877,0.5909,0.5895,0.5928,0.5922,0.5978,0.5984,0.5986,0.5985,0.5991,0.5991,0.6005,0.6,0.5974,0.5973,0.5972,0.5972,0,0.5809,0.58,0.5852,0.5859,0.5862,0.59,0.5907,0.5938,0.5936,0.5979,0.5988,0.5985,0.6023,0.6017,0.6058,0.6054,0.6126,0.6114,0.6121,0.612,0.6171,0.6168,0.6331,0.6354,0.6199,0.62,0.6202,0,0.5874,0.5909,0.592,0.594,0.5948,0.598,0.5998,0.5984,0.6005,0.6027,0.6057,0.6091,0.6119,0.6181,0.6185,0.6218,0.621,0.6264,0.6215,0.6221,0.6216,0.6216,0.6222,0.6275,0.6277,0.6278,0.628,0,0.5993,0.5988,0.6015,0.6042,0.6065,0.6086,0.6104,0.6123,0.6111,0.6137,0.6174,0.6196,0.6239,0.6277,0.6308,0.6318,0.6299,0.6295,0.6309,0.6317,0.6322,0.6325,0.6152,0.6292,0.6291,0.629,0.6289,0.6289,0.6082,0.6113,0.6127,0.6159,0.6172,0.6191,0.6221,0.6224,0.6254,0.6288,0.6278,0.6323,0.6341,0.6382,0.6395,0.6432,0.6412,0.6432,0.6437,0.6443,0.6452,0.6313,0.6437,0.6437,0.6437,0.6436,0.6436,0,0.6204,0.6211,0.6241,0.6269,0.6296,0.6273,0.6294,0.6319,0.6358,0.6375,0.6404,0.645,0.6487,0.6495,0.6531,0.656,0.6553,0.657,0.657,0.6574,0.6465,0.6451,0.6576,0.6576,0.6576,0.6576,0.6576,0.6576,0.627,0.6323,0.6321,0.6382,0.6389,0.6432,0.6446,0.6466,0.648,0.6533,0.6563,0.6567,0.6583,0.6621,0.6656,0.6657,0.6674,0.6696,0.6695,0.6594,0.658,0.6567,0.6554,0.6699,0.6699,0.6801,0.6802,0.6803]},{"header":{"parameterUnit":"m.s-1","parameterCategory":1,"la1":30.2991,"la2":30.254,"lo1":-89.0895,"lo2":-89.0444,"dy":0.0017,"dx":0.0017,"nx":28,"ny":28,"refTime":"2025-07-02T21:00:00:Z","depth":0,"parameterNumber":3,"parameterNumberName":"V-component_of_WINDS"},"data":[0,0,0,0,0,0,0,0,0,0,0,0,0,0,0,0,0,0,0,0,0,0,0,0,0,0,0,0,0,0,0,0,0,0,0,0,0,0,0,0,0,0,0,0,0,0,0,0,0,0,0,0,0,0,0,0,0,0,-0.3564,-0.356,0,-0.3231,-0.3227,-0.3223,-0.3129,-0.3131,-0.3133,-0.3135,-0.2786,-0.2776,-0.2765,0,0,0,0,0,0,0,0,0,0,0,0,0,-0.4111,-0.4101,-0.3564,-0.356,-0.3556,-0.3231,-0.3227,-0.3222,-0.3129,-0.3131,-0.3134,-0.3136,-0.279,-0.2777,-0.2764,0,0,0,0,0,0,0,0,0,0,0,0,0,-0.3835,-0.4098,-0.3565,-0.347,-0.3459,-0.3232,-0.3227,-0.3221,-0.3128,-0.3131,-0.3134,-0.3137,-0.2794,-0.2778,-0.2762,-0.2603,0,0,-0.2711,-0.2704,0,0,0,0,0,0,0,0,-0.3851,-0.3815,-0.3488,-0.3476,-0.3463,-0.3225,-0.3292,-0.3014,-0.3128,-0.3254,-0.3135,-0.3138,-0.2929,-0.2902,-0.2833,-0.2587,-0.2572,-0.271,-0.27,-0.2693,-0.2688,0,0,0,0,0,0,0,-0.387,-0.3829,-0.3432,-0.3484,-0.3468,-0.3442,-0.3406,-0.3239,-0.3079,-0.3243,-0.3235,-0.3198,-0.2923,-0.2849,-0.2824,-0.2567,-0.271,-0.2696,-0.2685,-0.2679,-0.2172,-0.2168,0,0,0,0,0,0,-0.3906,-0.3845,-0.3442,-0.3422,-0.3668,-0.343,-0.3389,-0.3298,-0.3081,-0.3051,-0.3195,-0.3194,-0.2876,-0.2844,-0.2812,-0.261,-0.2693,-0.2677,-0.2668,-0.2175,-0.2171,-0.2167,0,0,0,0,0,0,-0.3919,-0.3871,-0.3456,-0.3631,-0.3577,-0.3417,-0.3316,-0.329,-0.3216,-0.3045,-0.3016,-0.315,-0.2877,-0.2835,-0.2656,-0.2596,-0.267,-0.2655,-0.2179,-0.2174,-0.2169,-0.2207,0,0,0,0,0,0,-0.3935,-0.3876,-0.3817,-0.3631,-0.3568,-0.3308,-0.3312,-0.3282,-0.3189,-0.3184,-0.2995,-0.2966,-0.2876,-0.2681,-0.2639,-0.2575,-0.2642,-0.2184,-0.2177,-0.2171,-0.221,-0.2203,-0.2198,0,0,0,0,0,-0.3955,-0.3839,-0.3814,-0.3766,-0.349,-0.3305,-0.3268,-0.3169,-0.3185,-0.3121,-0.3011,-0.2972,-0.261,-0.2663,-0.2616,-0.2546,-0.2187,-0.2179,-0.2171,-0.2213,-0.2205,-0.2198,0,0,0,0,0,0,-0.4019,-0.3813,-0.3783,-0.3605,-0.3474,-0.329,-0.3207,-0.3164,-0.3024,-0.3025,-0.2906,-0.2864,-0.2693,-0.2601,-0.2664,-0.238,-0.2397,-0.238,-0.2445,-0.2436,-0.243,-0.2455,-0.2628,0,0,0,0,0,-0.4013,-0.3883,-0.3709,-0.3568,-0.3504,-0.3368,-0.3283,-0.3219,-0.3077,-0.302,-0.2897,-0.2758,-0.2613,-0.252,-0.2377,-0.2197,-0.2153,-0.2125,-0.2119,-0.2115,-0.21,-0.1995,-0.198,-0.2141,-0.2141,-0.2141,0,0,-0.3998,-0.387,-0.3794,-0.3578,-0.3469,-0.3334,-0.3321,-0.3179,-0.3077,-0.2997,-0.2821,-0.2726,-0.2563,-0.2383,-0.2297,-0.2301,-0.2046,-0.2104,-0.2102,-0.2089,-0.1985,-0.197,-0.1957,-0.2135,-0.2136,-0.2137,0,0,-0.3902,-0.3793,-0.3663,-0.3554,-0.339,-0.3299,-0.3269,-0.3091,-0.3025,-0.2847,-0.2784,-0.266,-0.2413,-0.2299,-0.2209,-0.207,-0.2027,-0.2027,-0.1994,-0.1893,-0.188,-0.1869,-0.1816,-0.18,-0.2013,-0.2013,-0.2013,0,-0.3903,-0.37,-0.3601,-0.3462,-0.3367,-0.3292,-0.3157,-0.3056,-0.2852,-0.2787,-0.2796,-0.2484,-0.2369,-0.216,-0.2126,-0.2057,-0.2015,-0.2047,-0.1891,-0.1878,-0.1865,-0.1814,-0.1795,-0.2014,-0.2014,-0.2014,-0.2014,0,-0.3708,-0.3569,-0.3483,-0.3291,-0.3187,-0.3051,-0.2928,-0.2834,-0.2779,-0.2687,-0.2505,-0.2365,-0.2192,-0.2138,-0.2082,-0.192,-0.1927,-0.1915,-0.193,-0.1853,-0.1802,-0.1782,-0.2015,-0.2015,-0.2015,-0.2015,0,0,-0.3641,-0.3397,-0.3367,-0.3279,-0.3092,-0.298,-0.284,-0.2673,-0.2594,-0.2456,-0.2333,-0.2126,-0.2114,-0.2012,-0.1941,-0.1854,-0.175,-0.1851,-0.1846,-0.1835,-0.156,-0.1569,-0.1548,-0.1722,-0.1718,-0.1714,-0.1573,0,-0.3519,-0.3269,-0.3175,-0.2969,-0.2837,-0.2764,-0.2641,-0.2512,-0.2422,-0.2295,-0.2195,-0.2049,-0.2045,-0.1982,-0.1893,-0.1782,-0.1692,-0.1791,-0.1603,-0.1597,-0.1644,-0.1522,-0.1531,-0.1404,-0.1553,-0.1549,-0.1547,0,-0.3343,-0.3206,-0.2988,-0.2817,-0.2758,-0.265,-0.2488,-0.2369,-0.222,-0.216,-0.2047,-0.1983,-0.183,-0.1857,-0.1643,-0.1713,-0.163,-0.1564,-0.1557,-0.1533,-0.1566,-0.1493,-0.1361,-0.1341,-0.1515,-0.1518,-0.152,0,-0.3313,-0.3074,-0.2912,-0.2838,-0.2636,-0.2561,-0.2472,-0.2327,-0.2232,-0.209,-0.2027,-0.1869,-0.1782,-0.1659,-0.1553,-0.1583,-0.1348,-0.1367,-0.1292,-0.1295,-0.1243,-0.1248,-0.1095,-0.1195,-0.1196,-0.1196,-0.1197,0,-0.3185,-0.3054,-0.2896,-0.2795,-0.2645,-0.2538,-0.2391,-0.2297,-0.2168,-0.2046,-0.1973,-0.1859,-0.1727,-0.1596,-0.1512,-0.1346,-0.1308,-0.1254,-0.1232,-0.1258,-0.1265,-0.1201,-0.1206,-0.1191,-0.1192,-0.1193,-0.1194,0,-0.3125,-0.3015,-0.2832,-0.2657,-0.2609,-0.2506,-0.2353,-0.2251,-0.216,-0.2006,-0.1964,-0.1818,-0.166,-0.1543,-0.1337,-0.128,-0.1103,-0.1082,-0.1154,-0.1142,-0.1073,-0.108,-0.0871,-0.0837,-0.0964,-0.0963,-0.0962,0,-0.305,-0.2947,-0.2761,-0.2676,-0.2588,-0.2451,-0.2355,-0.2245,-0.2147,-0.197,-0.1889,-0.1727,-0.159,-0.134,-0.1214,-0.1056,-0.1029,-0.0967,-0.1004,-0.1034,-0.1024,-0.1031,-0.1019,-0.0961,-0.096,-0.0959,-0.0959,0,-0.2926,-0.2877,-0.2743,-0.2589,-0.2476,-0.2349,-0.222,-0.2154,-0.202,-0.1914,-0.1752,-0.1647,-0.1438,-0.1276,-0.1106,-0.1011,-0.0961,-0.0949,-0.0922,-0.0946,-0.0991,-0.0963,-0.1136,-0.0953,-0.0953,-0.0954,-0.0954,-0.0954,-0.2853,-0.2758,-0.2613,-0.2465,-0.2357,-0.2239,-0.2134,-0.2031,-0.1895,-0.1718,-0.1661,-0.1494,-0.1345,-0.1112,-0.1016,-0.0881,-0.0881,-0.0844,-0.0834,-0.0826,-0.0826,-0.1016,-0.085,-0.085,-0.085,-0.085,-0.085,0,-0.2724,-0.2627,-0.2493,-0.2316,-0.2199,-0.2167,-0.2022,-0.1926,-0.178,-0.1648,-0.1516,-0.1329,-0.1172,-0.1035,-0.0871,-0.0789,-0.0762,-0.0749,-0.0752,-0.0731,-0.0836,-0.0874,-0.0774,-0.0774,-0.0774,-0.0774,-0.0774,-0.0774,-0.2642,-0.2479,-0.2413,-0.2194,-0.2097,-0.1935,-0.1855,-0.1744,-0.1637,-0.1434,-0.1304,-0.1216,-0.108,-0.0906,-0.0759,-0.0723,-0.0664,-0.0657,-0.0614,-0.0715,-0.0724,-0.0732,-0.0767,-0.0646,-0.0646,-0.0519,-0.0518,-0.0517]}]]